Yaogan 36 04 zu 03 xing

operational
NORAD ID: 54750 Int'l Des: 2022-171 Owner: ZZB Country: CN Constellation: yaogan
LEOCIRCULAR

About Yaogan 36 04 zu 03 xing

Description loading...

Live Position

Loading 3D Globe...

Upcoming Passes

Altitude History

Altitude vs Time

uPlot chart will show altitude changes over time

Two-Line Element Set

1 54750U 22171E 26063.24144993 .00021445 00000-0 72670-3 0 9998
2 54750 34.9789 131.9160 0006693 231.3520 128.6597 15.29639336179398
Epoch: Mar 4, 2026 • Age: 15 hours

Current Status

Altitude 481.1 km
Velocity 7.63 km/s
Sub-Earth Point 29.99°N, 150.23°E
Launch Date Dec 14, 2022
Age 3.2 years
Type military

Technical Details

Classification Payload
Mass 300.00 kg
Dry Mass 300.00 kg
Total Mass 300.00 kg
Length 2.50 m
Diameter 2.50 m
Span 5.00 m
Shape Box + 2 Pan
Manufacturer DFHZ
Phase Status In Orbit
Owner/State ZZB/CN

Large Constellations

Loading constellations...